GW2622 Weather Reports


time (UTC)temp
F
wind
direction
speed
knots
gust
knots
rain 1hr
in
rain 24hr
in
rain mn
in
humidity
%
barometer
mb
20260904210100 93 229 3.5 5.2 0.00 0.00 0.00 61 1012.4
20260904205555 93 234 2.6 7.0 0.00 0.00 0.00 60 1012.4
20260904205051 94 244 3.5 7.0 0.00 0.00 0.00 58 1012.6
20260904204547 96 216 3.5 7.8 0.00 0.00 0.00 58 1012.6
20260904204043 96 205 2.6 6.1 0.00 0.00 0.00 56 1012.5
20260904203538 96 196 4.3 7.8 0.00 0.00 0.00 56 1012.4
20260904203035 96 213 4.3 6.1 0.00 0.00 0.00 55 1012.5
20260904202530 95 182 4.3 7.8 0.00 0.00 0.00 56 1012.5
20260904202026 96 234 6.1 8.7 0.00 0.00 0.00 56 1012.7
20260904201521 96 200 2.6 5.2 0.00 0.00 0.00 56 1012.7
20260904201016 96 251 2.6 4.3 0.00 0.00 0.00 55 1012.6
20260904200514 96 278 2.6 9.6 0.00 0.00 0.00 58 1012.7
20260904200010 95 208 4.3 7.8 0.00 0.00 0.00 57 1012.9
20260904195508 95 201 4.3 7.0 0.00 0.00 0.00 57 1012.8
20260904195008 96 237 4.3 6.1 0.00 0.00 0.00 56 1012.6
20260904194503 95 214 7.0 9.6 0.00 0.00 0.00 56 1012.5
20260904193957 95 188 4.3 7.8 0.00 0.00 0.00 58 1012.6
20260904193452 95 243 5.2 7.8 0.00 0.00 0.00 56 1012.5
20260904192948 95 174 5.2 9.6 0.00 0.00 0.00 57 1012.7
20260904192443 94 202 4.3 9.6 0.00 0.00 0.00 59 1012.6
20260904191940 94 172 4.3 7.0 0.00 0.00 0.00 59 1012.7
20260904191436 95 203 7.8 9.6 0.00 0.00 0.00 57 1012.6
20260904190932 95 199 7.8 13.0 0.00 0.00 0.00 58 1012.7
20260904190426 96 217 7.0 7.8 0.00 0.00 0.00 59 1012.6
20260904185923 95 249 4.3 6.1 0.00 0.00 0.00 59 1012.8
20260904185418 94 168 2.6 8.7 0.00 0.00 0.00 60 1012.8
20260904184913 94 277 7.0 7.8 0.00 0.00 0.00 59 1012.8
20260904184408 93 191 7.0 8.7 0.00 0.00 0.00 60 1013.0
20260904183903 94 221 4.3 11.3 0.00 0.00 0.00 61 1013.0
20260904183358 93 233 2.6 7.0 0.00 0.00 0.00 62 1013.1
20260904182854 94 146 4.3 7.0 0.00 0.00 0.00 61 1013.1
20260904182348 93 244 4.3 7.8 0.00 0.00 0.00 62 1013.0
20260904181843 93 175 6.1 7.0 0.00 0.00 0.00 61 1013.1
20260904181338 94 199 4.3 7.0 0.00 0.00 0.00 60 1013.0
20260904180834 93 286 3.5 7.8 0.00 0.00 0.00 61 1013.3
20260904180329 93 214 8.7 9.6 0.00 0.00 0.00 62 1013.3
20260904175828 93 274 4.3 7.8 0.00 0.00 0.00 60 1013.1
20260904175327 92 193 6.1 7.8 0.00 0.00 0.00 62 1013.3
20260904174827 93 184 6.1 7.8 0.00 0.00 0.00 64 1013.3
20260904174323 92 211 3.5 7.8 0.00 0.00 0.00 63 1013.1
20260904173819 92 218 6.1 7.8 0.00 0.00 0.00 62 1013.2
20260904173314 92 197 5.2 7.8 0.00 0.00 0.00 64 1013.3
20260904172810 92 301 4.3 7.0 0.00 0.00 0.00 63 1013.3
20260904172309 91 214 6.1 7.8 0.00 0.00 0.00 62 1013.4
20260904171804 91 206 4.3 8.7 0.00 0.00 0.00 63 1013.6
20260904171259 91 235 3.5 7.8 0.00 0.00 0.00 64 1013.5
20260904170755 91 215 6.1 8.7 0.00 0.00 0.00 63 1013.6
20260904170251 91 205 6.1 7.8 0.00 0.00 0.00 63 1013.5
20260904165750 90 186 5.2 7.8 0.00 0.00 0.00 64 1013.5
20260904165244 90 215 7.0 9.6 0.00 0.00 0.00 64 1013.6
20260904164738 91 228 6.1 7.8 0.00 0.00 0.00 64 1013.7
20260904164234 90 221 6.1 9.6 0.00 0.00 0.00 65 1013.7
20260904163730 89 219 4.3 7.8 0.00 0.00 0.00 67 1013.6
20260904163225 90 219 3.5 7.0 0.00 0.00 0.00 66 1013.5
20260904162724 90 224 2.6 7.0 0.00 0.00 0.00 67 1013.7
20260904162219 89 180 2.6 7.8 0.00 0.00 0.00 67 1013.7
20260904161715 89 218 3.5 7.0 0.00 0.00 0.00 66 1013.6
20260904161209 89 231 2.6 8.7 0.00 0.00 0.00 67 1013.7
20260904160705 89 226 4.3 7.0 0.00 0.00 0.00 69 1013.4
20260904160201 88 218 6.1 7.8 0.00 0.00 0.00 69 1013.6
20260904155655 88 193 4.3 6.1 0.00 0.00 0.00 70 1013.4
20260904155155 88 167 6.1 9.6 0.00 0.00 0.00 69 1013.5
20260904154653 88 225 3.5 7.0 0.00 0.00 0.00 71 1013.5
20260904154153 88 196 5.2 8.7 0.00 0.00 0.00 69 1013.4
20260904153648 88 207 4.3 8.7 0.00 0.00 0.00 69 1013.4
20260904153144 88 172 6.1 7.0 0.00 0.00 0.00 70 1013.3
20260904152640 87 208 3.5 6.1 0.00 0.00 0.00 70 1013.4
20260904152136 87 203 5.2 6.1 0.00 0.00 0.00 71 1013.2
20260904151630 87 215 5.2 8.7 0.00 0.00 0.00 72 1013.3
20260904151129 86 209 2.6 5.2 0.00 0.00 0.00 72 1013.4
20260904150625 86 122 5.2 8.7 0.00 0.00 0.00 72 1013.4
20260904150120 86 226 5.2 7.0 0.00 0.00 0.00 73 1013.4
20260904145618 85 172 6.1 9.6 0.00 0.00 0.00 75 1013.4
20260904145114 84 190 3.5 7.8 0.00 0.00 0.00 77 1013.3
20260904144609 84 192 4.3 7.0 0.00 0.00 0.00 76 1013.5
20260904144105 84 163 5.2 6.1 0.00 0.00 0.00 77 1013.5
20260904143601 84 227 4.3 6.1 0.00 0.00 0.00 76 1013.3
20260904143057 83 184 5.2 7.0 0.00 0.00 0.00 77 1013.3
20260904142554 82 222 4.3 7.0 0.00 0.00 0.00 79 1013.4
20260904142053 82 227 3.5 7.0 0.00 0.00 0.00 80 1013.3
20260904141549 81 229 5.2 7.0 0.00 0.00 0.00 81 1013.4
20260904141044 81 217 4.3 6.1 0.00 0.00 0.00 81 1013.4
20260904140540 81 195 3.5 5.2 0.00 0.00 0.00 81 1013.3
20260904140039 81 184 6.1 7.0 0.00 0.00 0.00 81 1013.4
20260904135539 80 195 4.3 6.1 0.00 0.00 0.00 82 1013.4
20260904135035 80 188 4.3 5.2 0.00 0.00 0.00 82 1013.4
20260904134530 80 230 3.5 5.2 0.00 0.00 0.00 82 1013.3
20260904134025 79 256 3.5 5.2 0.00 0.00 0.00 84 1013.3
20260904133520 79 279 1.7 2.6 0.00 0.00 0.00 84 1013.4
20260904133016 79 260 0.9 2.6 0.00 0.00 0.00 84 1013.1
20260904132515 78 160 4.3 5.2 0.00 0.00 0.00 84 1013.3
20260904132010 78 242 2.6 2.6 0.00 0.00 0.00 85 1013.0
20260904131505 78 269 1.7 2.6 0.00 0.00 0.00 85 1013.0
20260904131001 77 272 0.9 1.7 0.00 0.00 0.00 86 1013.3
20260904130459 78 260 0.9 1.7 0.00 0.00 0.00 86 1013.1
20260904125954 77 187 1.7 1.7 0.00 0.00 0.00 86 1013.0
20260904125451 77 252 0.9 1.7 0.00 0.00 0.00 87 1013.2
20260904124950 77 237 1.7 2.6 0.00 0.00 0.00 87 1013.0
20260904124446 77 221 1.7 1.7 0.00 0.00 0.00 87 1013.1
20260904123942 77 234 1.7 2.6 0.00 0.00 0.00 87 1012.8
20260904123436 77 242 1.7 1.7 0.00 0.00 0.00 87 1013.0
20260904122931 76 257 0.9 1.7 0.00 0.00 0.00 87 1012.7
20260904122426 76 274 0.9 1.7 0.00 0.00 0.00 87 1012.7
20260904121920 75 278 0.9 0.9 0.00 0.00 0.00 88 1012.9
20260904121417 75 255 1.7 1.7 0.00 0.00 0.00 88 1012.9
20260904120913 75 267 1.7 1.7 0.00 0.00 0.00 89 1012.8
20260904120409 74 264 0.9 1.7 0.00 0.00 0.00 89 1012.8
20260904115904 74 270 0.0 0.9 0.00 0.00 0.00 90 1012.9
20260904115359 74 265 0.9 1.7 0.00 0.00 0.00 90 1012.7
20260904114853 74 238 1.7 1.7 0.00 0.00 0.00 90 1012.8
20260904114348 74 244 1.7 1.7 0.00 0.00 0.00 89 1012.5
20260904113843 74 247 1.7 1.7 0.00 0.00 0.00 89 1012.5
20260904113342 74 228 2.6 2.6 0.00 0.00 0.00 90 1012.4
20260904112837 74 235 1.7 1.7 0.00 0.00 0.00 89 1012.5
20260904112333 74 235 1.7 2.6 0.00 0.00 0.00 89 1012.4
20260904111828 74 230 1.7 2.6 0.00 0.00 0.00 89 1012.5
20260904111324 74 256 0.9 2.6 0.00 0.00 0.00 89 1012.3
20260904110820 74 250 0.9 2.6 0.00 0.00 0.00 89 1012.2
20260904110319 74 257 0.9 1.7 0.00 0.00 0.00 89 1012.2
20260904105813 74 248 0.9 2.6 0.00 0.00 0.00 89 1012.2
20260904105308 74 244 1.7 2.6 0.00 0.00 0.00 89 1012.2
20260904104803 74 237 1.7 2.6 0.00 0.00 0.00 89 1012.3
20260904104259 74 242 1.7 2.6 0.00 0.00 0.00 89 1012.1
20260904103756 74 226 1.7 2.6 0.00 0.00 0.00 89 1012.1
20260904103255 74 234 1.7 2.6 0.00 0.00 0.00 89 1012.1
20260904102751 74 244 0.9 1.7 0.00 0.00 0.00 89 1012.1
20260904102246 74 245 0.9 1.7 0.00 0.00 0.00 89 1012.2
20260904101742 74 246 0.9 0.9 0.00 0.00 0.00 90 1012.0
20260904101238 74 246 0.0 0.0 0.00 0.00 0.00 90 1012.0
20260904100734 74 246 0.0 0.9 0.00 0.00 0.00 89 1012.0
20260904100230 75 245 0.9 1.7 0.00 0.00 0.00 89 1012.1
20260904095729 75 245 0.9 1.7 0.00 0.00 0.00 89 1012.0
20260904095224 75 245 1.7 1.7 0.00 0.00 0.00 89 1011.9
20260904094719 75 246 1.7 1.7 0.00 0.00 0.00 88 1012.0
20260904094219 75 249 0.9 1.7 0.00 0.00 0.00 88 1011.9
20260904093716 75 237 1.7 1.7 0.00 0.00 0.00 88 1011.8
20260904093215 75 228 2.6 2.6 0.00 0.00 0.00 88 1011.8
20260904092711 75 231 2.6 4.3 0.00 0.00 0.00 88 1011.7
20260904092207 75 234 1.7 2.6 0.00 0.00 0.00 88 1011.7
20260904091703 75 243 1.7 2.6 0.00 0.00 0.00 88 1011.7
20260904091158 75 230 2.6 2.6 0.00 0.00 0.00 88 1011.6
20260904090653 76 235 1.7 1.7 0.00 0.00 0.00 87 1011.4
20260904090149 76 227 1.7 1.7 0.00 0.00 0.00 87 1011.5
20260904085644 76 222 0.9 2.6 0.00 0.00 0.00 87 1011.5
20260904085143 75 207 1.7 2.6 0.00 0.00 0.00 87 1011.5
20260904084638 75 245 1.7 2.6 0.00 0.00 0.00 88 1011.4
20260904084135 75 213 1.7 2.6 0.00 0.00 0.00 88 1011.4
20260904083631 76 207 1.7 1.7 0.00 0.00 0.00 88 1011.6
20260904083127 76 227 1.7 1.7 0.00 0.00 0.00 87 1011.5
20260904082621 76 224 1.7 1.7 0.00 0.00 0.00 87 1011.6
20260904082117 76 219 1.7 2.6 0.00 0.00 0.00 87 1011.5
20260904081612 76 231 1.7 2.6 0.00 0.00 0.00 86 1011.4
20260904081107 76 199 2.6 2.6 0.00 0.00 0.00 86 1011.4
20260904080603 76 241 0.9 1.7 0.00 0.00 0.00 87 1011.5
20260904080059 76 246 1.7 1.7 0.00 0.00 0.00 87 1011.3
20260904075556 76 248 0.9 1.7 0.00 0.00 0.00 86 1011.5
20260904075055 77 250 0.9 2.6 0.00 0.00 0.00 85 1011.5
20260904074555 77 208 1.7 2.6 0.00 0.00 0.00 85 1011.6
20260904074050 77 181 2.6 2.6 0.00 0.00 0.00 84 1011.6
20260904073544 77 196 1.7 2.6 0.00 0.00 0.00 84 1011.6
20260904073041 77 252 1.7 2.6 0.00 0.00 0.00 84 1011.6
20260904072536 77 156 2.6 4.3 0.00 0.00 0.00 84 1011.5
20260904072031 77 178 1.7 2.6 0.00 0.00 0.00 84 1011.6
20260904071527 77 225 1.7 1.7 0.00 0.00 0.00 85 1011.7
20260904071022 77 241 0.9 1.7 0.00 0.00 0.00 85 1011.6
20260904070520 78 171 1.7 2.6 0.00 0.00 0.00 84 1011.6
20260904070015 78 186 1.7 2.6 0.00 0.00 0.00 83 1011.6
20260904065510 78 186 2.6 4.3 0.00 0.00 0.00 83 1011.8
20260904065007 77 161 2.6 2.6 0.00 0.00 0.00 84 1011.7
20260904064503 77 187 2.6 2.6 0.00 0.00 0.00 85 1011.6
20260904063957 77 188 2.6 2.6 0.00 0.00 0.00 85 1011.9
20260904063453 77 198 2.6 2.6 0.00 0.00 0.00 85 1011.8
20260904062948 77 196 1.7 2.6 0.00 0.00 0.00 85 1011.8
20260904062444 77 186 2.6 2.6 0.00 0.00 0.00 85 1012.0
20260904061940 77 204 2.6 2.6 0.00 0.00 0.00 85 1011.8
20260904061436 77 177 2.6 4.3 0.00 0.00 0.00 85 1011.8
20260904060932 77 193 1.7 2.6 0.00 0.00 0.00 85 1011.9
20260904060427 77 192 1.7 4.3 0.00 0.00 0.00 85 1011.8
20260904055923 77 189 2.6 4.3 0.00 0.00 0.00 85 1011.8
20260904055418 77 197 2.6 2.6 0.00 0.00 0.00 85 1012.0
20260904054914 77 177 2.6 2.6 0.00 0.00 0.00 85 1011.8
20260904054409 77 195 1.7 4.3 0.00 0.00 0.00 86 1011.8
20260904053900 77 181 2.6 2.6 0.00 0.00 0.00 86 1012.0
20260904053358 77 176 2.6 2.6 0.00 0.00 0.00 85 1012.0
20260904052854 77 175 2.6 4.3 0.00 0.00 0.00 85 1012.0
20260904052350 78 174 3.5 5.2 0.00 0.00 0.00 85 1012.0
20260904051846 78 169 2.6 2.6 0.00 0.00 0.00 84 1011.8
20260904051342 78 191 2.6 2.6 0.00 0.00 0.00 84 1011.9
20260904050836 78 202 1.7 2.6 0.00 0.00 0.00 84 1011.8
20260904050333 78 192 1.7 1.7 0.00 0.00 0.00 84 1011.9
20260904045828 78 178 2.6 2.6 0.00 0.00 0.00 84 1011.9
20260904045323 78 184 2.6 2.6 0.00 0.00 0.00 84 1011.9
20260904044822 78 219 1.7 2.6 0.00 0.00 0.00 83 1012.0
20260904044319 78 196 1.7 4.3 0.00 0.00 0.00 83 1011.9
20260904043815 79 197 1.7 2.6 0.00 0.00 0.00 83 1012.0
20260904043311 79 244 0.9 1.7 0.00 0.00 0.00 83 1011.8
20260904042806 79 245 0.9 1.7 0.00 0.00 0.00 83 1011.9
20260904042306 79 230 1.7 2.6 0.00 0.00 0.00 82 1011.8
20260904041802 79 185 1.7 2.6 0.00 0.00 0.00 82 1012.0
20260904041259 79 204 1.7 2.6 0.00 0.00 0.00 82 1011.9
20260904040753 79 239 1.7 2.6 0.00 0.00 0.00 83 1011.9
20260904040249 79 220 1.7 1.7 0.00 0.00 0.00 83 1011.9
20260904035745 79 191 1.7 1.7 0.00 0.00 0.00 83 1011.8
20260904035241 79 208 1.7 2.6 0.00 0.00 0.00 83 1011.9
20260904034739 80 197 1.7 1.7 0.00 0.00 0.00 82 1011.9
20260904034236 80 174 2.6 2.6 0.00 0.00 0.00 82 1011.8
20260904033731 80 201 1.7 1.7 0.00 0.00 0.00 81 1012.0
20260904033228 80 203 1.7 1.7 0.00 0.00 0.00 81 1012.0
20260904032723 80 241 0.9 1.7 0.00 0.00 0.00 80 1011.7
20260904032222 80 187 1.7 1.7 0.00 0.00 0.00 80 1011.7
20260904031717 80 205 1.7 1.7 0.00 0.00 0.00 80 1011.8
20260904031213 80 233 1.7 1.7 0.00 0.00 0.00 80 1011.8
20260904030708 81 224 1.7 1.7 0.00 0.00 0.00 80 1011.8
20260904030203 81 211 1.7 1.7 0.00 0.00 0.00 78 1011.8
20260904025700 81 218 1.7 2.6 0.00 0.00 0.00 78 1011.7
20260904025154 81 256 0.9 2.6 0.00 0.00 0.00 78 1011.7
20260904024650 82 247 1.7 2.6 0.00 0.00 0.00 77 1011.7
20260904024145 82 191 2.6 2.6 0.00 0.00 0.00 76 1011.7
20260904023641 82 183 2.6 4.3 0.00 0.00 0.00 75 1011.5
20260904023131 83 226 1.7 2.6 0.00 0.00 0.00 75 1011.6
20260904022631 83 221 1.7 2.6 0.00 0.00 0.00 74 1011.6
20260904022128 83 215 0.9 2.6 0.00 0.00 0.00 74 1011.6
20260904021624 83 229 1.7 4.3 0.00 0.00 0.00 74 1011.4
20260904021118 83 225 1.7 2.6 0.00 0.00 0.00 74 1011.6
20260904020614 84 214 2.6 2.6 0.00 0.00 0.00 73 1011.5
20260904020108 84 182 2.6 4.3 0.00 0.00 0.00 73 1011.3
20260904015603 84 180 2.6 2.6 0.00 0.00 0.00 73 1011.4
20260904015101 84 189 2.6 2.6 0.00 0.00 0.00 73 1011.1
20260904014555 84 205 2.6 4.3 0.00 0.00 0.00 72 1011.1
20260904014051 85 223 2.6 5.2 0.00 0.00 0.00 72 1011.3
20260904013548 85 200 2.6 4.3 0.00 0.00 0.00 71 1011.0
20260904013044 85 180 3.5 5.2 0.00 0.00 0.00 71 1011.0
20260904012538 85 210 2.6 4.3 0.00 0.00 0.00 72 1011.2
20260904012037 85 185 1.7 4.3 0.00 0.00 0.00 73 1011.3
20260904011532 85 210 1.7 2.6 0.00 0.00 0.00 73 1011.1
20260904011027 85 181 2.6 2.6 0.00 0.00 0.00 73 1011.0
20260904010524 85 212 1.7 2.6 0.00 0.00 0.00 74 1010.8
20260904010019 86 173 2.6 2.6 0.00 0.00 0.00 73 1010.8
20260904005514 86 184 2.6 2.6 0.00 0.00 0.00 73 1011.0
20260904005009 86 236 1.7 1.7 0.00 0.00 0.00 73 1010.9
20260904004505 86 219 1.7 2.6 0.00 0.00 0.00 72 1010.8
20260904004005 86 175 2.6 2.6 0.00 0.00 0.00 72 1011.0
20260904003501 87 216 1.7 1.7 0.00 0.00 0.00 72 1010.7
20260904002956 87 183 2.6 2.6 0.00 0.00 0.00 71 1010.8
20260904002452 87 211 1.7 1.7 0.00 0.00 0.00 70 1010.7
20260904001950 88 211 1.7 1.7 0.00 0.00 0.00 70 1010.8
20260904001447 88 200 1.7 1.7 0.00 0.00 0.00 68 1010.8
20260904000941 89 272 0.9 2.6 0.00 0.00 0.00 68 1010.8
20260904000440 89 180 2.6 2.6 0.00 0.00 0.00 66 1010.8
20260903235936 90 202 2.6 4.3 0.00 0.00 0.00 65 1010.8
20260903235432 90 187 2.6 4.3 0.00 0.00 0.00 64 1010.7
20260903234926 91 181 2.6 6.1 0.00 0.00 0.00 63 1010.7
20260903234422 91 177 3.5 5.2 0.00 0.00 0.00 63 1010.7
20260903233918 91 199 3.5 6.1 0.00 0.00 0.00 63 1010.7
20260903233413 92 222 1.7 5.2 0.00 0.00 0.00 62 1010.6
20260903232908 92 199 1.7 5.2 0.00 0.00 0.00 61 1010.7
20260903232403 92 178 4.3 5.2 0.00 0.00 0.00 61 1010.7
20260903231902 92 190 4.3 7.0 0.00 0.00 0.00 60 1010.6
20260903231357 93 271 1.7 4.3 0.00 0.00 0.00 60 1010.8
20260903230853 93 166 6.1 8.7 0.00 0.00 0.00 58 1010.8
20260903230348 93 169 3.5 5.2 0.00 0.00 0.00 59 1010.6
20260903225844 93 191 2.6 6.1 0.00 0.00 0.00 59 1010.5
20260903225340 94 230 2.6 4.3 0.00 0.00 0.00 59 1010.5
20260903224836 94 181 4.3 5.2 0.00 0.00 0.00 58 1010.7
20260903224332 94 163 3.5 7.8 0.00 0.00 0.00 59 1010.4
20260903223827 94 160 3.5 5.2 0.00 0.00 0.00 58 1010.4
20260903223326 94 166 3.5 7.0 0.00 0.00 0.00 56 1010.4
20260903222821 94 175 2.6 6.1 0.00 0.00 0.00 56 1010.5
20260903222320 95 134 5.2 8.7 0.00 0.00 0.00 55 1010.5
20260903221815 95 182 4.3 7.8 0.00 0.00 0.00 57 1010.6
20260903221314 95 179 6.1 7.0 0.00 0.00 0.00 57 1010.8
20260903220812 95 147 3.5 6.1 0.00 0.00 0.00 57 1010.9
20260903220301 95 161 5.2 7.0 0.00 0.00 0.00 56 1010.8
20260903215759 95 197 5.2 6.1 0.00 0.00 0.00 56 1011.0
20260903215256 96 217 4.3 7.8 0.00 0.00 0.00 55 1011.0
20260903214753 96 263 2.6 5.2 0.00 0.00 0.00 55 1010.8
20260903214244 96 207 7.0 8.7 0.00 0.00 0.00 54 1010.9
20260903213738 96 179 4.3 7.8 0.00 0.00 0.00 53 1011.0
20260903213234 96 162 6.1 13.0 0.00 0.00 0.00 53 1011.1
20260903212730 95 166 7.8 8.7 0.00 0.00 0.00 55 1011.2
20260903212226 96 120 5.2 7.8 0.00 0.00 0.00 54 1011.2
20260903211724 96 196 4.3 9.6 0.00 0.00 0.00 53 1011.2
20260903211222 96 225 7.0 8.7 0.00 0.00 0.00 55 1011.3
20260903210717 96 209 4.3 7.0 0.00 0.00 0.00 54 1011.1
20260903210213 96 256 4.3 6.1 0.00 0.00 0.00 54 1011.2